OBJECT V, 66685

Orbit data source: Space-Track

You're viewing an Uncataloged Satellite

Recently launched and/or uncataloged satellites may have evolving metadata. Metadata may include but not limited to: Owner, Maufacturer, Bus, Motor, and Mission.

OBJECT V, 66685 is a satellite in SSO that was launched on Fri, 28 Nov 2025 UTC via an FALCON 9 launch vehicle from the Air Force Western Test Range (AFWTR). Unknown objects in Earth's orbit typically refer to objects detected orbiting the Earth but have not yet been identified or cataloged. These objects could be anything from previously untracked satellites, spent rocket stages, debris from satellite collisions, or even natural meteoroids temporarily captured by Earth's gravity.

Loading next visibility...
Identifier
66685, 2025-276V
Orbit
SSO
Country
Flag of TBDTBD
Related business
None
Manufacturer
Unknown
Mission
Operational Commercial Technology
Bus & Motor
Unknown
Mass
Unknown
Launch date (UTC)
2025-11-28 (4 months ago)
Launch vehicle
FALCON 9
Launch site
Air Force Western Test Range (AFWTR)
Object type
Unknown
Shape & HBR
Box, 0.5 m
Radar Cross Section
0.575 m²

Expand to show TLE details & history
Last TLE update: 9 hours ago

TLE from 9 hours ago
0 OBJECT V
1 66685U 25276V   26095.43087519  .00017316  00000-0  78105-3 0  9994
2 66685  97.4248 170.3931 0003675 251.6533 108.4304 15.21072835 19382
Epoch: 2026-04-05T10:20Z
TLE epoch observation values (Epoch: 2026-04-05T10:20:27.616Z)
Latitude
0.00007°
Longitude
-178.45838°
Altitude
506.495 km
Speed
7.61 km/s
True Right ascension
11h 21m 34s
True Declination
0° 00' 00"
Sunlit
Object was in full shadow at epoch
Visualization orbit readout
Latitude
Unknown
Longitude
Unknown
Altitude
Unknown
Speed
Unknown
Apparent Right ascension
Unknown
Apparent Declination
Unknown
Sunlit
N/A
Visualization observer readout
Local Sidereal Time
01:44:59
Azimuth
Unknown
Elevation
Unknown
Doppler factor
Unknown
Orbital elements
Apogee altitude
502.096 km
Perigee altitude
497.041 km
Semi-major axis
6,877.706 km
Eccentricity
0.00037
Inclination
97.4248°
RAAN
170.3931°
Arg. of periapsis
251.6533°
True anomaly
108.47035°
Mean anomaly
108.4304°
Eccentric anomaly
108.45037°
Mean motion
3.8052 °/min
Orbital period
94.61 mins
BSTAR
0.00078105
Loading maneuver chart data...
Computing Atmospheric mass density...
Loading historical data...
Loading historical data...
Loading historical data...
Loading historical data...
Loading historical data...
Loading historical data...
Loading historical data...

Documentation

Showing up to 5 results
|